Total_Precipitation_Accumulation
0.13 0.20 0.21 0.26 0.32 0.22 0.15 0.13 0.16 0.22 0.27 0.32 0.35 0.43 0.61 0.74 0.89 1.06 1.23 1.30 1.21 1.12 1.02 0.91 0.85 0.78 0.65 0.53 0.43 0.35 0.30 0.25 0.19 0.15 0.11 0.07 0.04 0.03 0.02 0.02 0.01 0.01 0.01
0.16 0.28 0.29 0.32 0.33 0.25 0.22 0.23 0.29 0.45 0.63 0.87 1.08 1.31 1.52 1.60 1.75 1.86 1.87 1.79 1.61 1.45 1.35 1.27 1.15 0.95 0.76 0.61 0.47 0.37 0.30 0.24 0.18 0.15 0.11 0.08 0.04 0.02 0.01 0.01 0.01 0.01 0.01
0.12 0.20 0.22 0.28 0.30 0.33 0.34 0.36 0.52 0.85 1.22 1.46 1.70 2.09 2.38 2.41 2.39 2.29 2.16 1.99 1.84 1.69 1.55 1.45 1.29 1.09 0.88 0.73 0.57 0.42 0.32 0.23 0.15 0.08 0.06 0.05 0.04 0.02 0.01 0.01 0.01 0.01 0.01
0.05 0.09 0.14 0.21 0.26 0.38 0.45 0.53 0.81 1.35 1.76 1.99 2.37 2.73 2.94 3.05 3.02 2.70 2.33 2.00 1.76 1.55 1.36 1.21 1.04 0.89 0.72 0.55 0.40 0.28 0.20 0.12 0.07 0.04 0.03 0.02 0.02 0.02 0.02 0.01 0.00 0.00 0.00
0.04 0.05 0.11 0.21 0.29 0.43 0.57 0.72 1.04 1.46 1.91 2.40 2.88 3.09 3.17 3.11 2.83 2.38 1.94 1.65 1.46 1.27 1.09 0.92 0.73 0.54 0.39 0.27 0.19 0.14 0.11 0.09 0.06 0.04 0.03 0.02 0.01 0.01 0.02 0.01 0.00 0.00 0.00
0.06 0.09 0.17 0.27 0.41 0.55 0.67 0.83 1.06 1.40 1.86 2.29 2.60 2.60 2.60 2.44 2.08 1.79 1.61 1.44 1.21 0.96 0.73 0.54 0.36 0.24 0.17 0.13 0.10 0.08 0.06 0.04 0.03 0.01 0.01 0.01 0.01 0.01 0.01 0.01 0.00 0.00 0.00
0.10 0.16 0.25 0.33 0.50 0.60 0.73 0.92 1.13 1.42 1.69 1.99 2.24 2.25 2.14 1.94 1.69 1.43 1.18 0.95 0.75 0.56 0.39 0.27 0.20 0.14 0.10 0.06 0.04 0.03 0.02 0.01 0.01 0.01 0.01 0.00 0.00 0.00 0.00 0.00 0.00 0.00 0.00
0.16 0.26 0.33 0.43 0.59 0.70 0.83 1.02 1.25 1.47 1.53 1.53 1.59 1.56 1.46 1.34 1.17 0.90 0.69 0.55 0.42 0.32 0.26 0.21 0.14 0.08 0.04 0.03 0.02 0.01 0.01 0.01 0.01 0.01 0.01 0.01 0.01 0.01 0.00 0.01 0.01 0.01 0.00
0.22 0.30 0.38 0.49 0.62 0.76 0.88 1.01 1.12 1.21 1.22 1.15 1.08 1.00 0.94 0.84 0.72 0.58 0.46 0.35 0.24 0.17 0.12 0.09 0.05 0.03 0.01 0.01 0.01 0.01 0.01 0.01 0.01 0.01 0.01 0.02 0.01 0.01 0.01 0.02 0.04 0.06 0.05
0.26 0.32 0.40 0.46 0.50 0.53 0.61 0.65 0.70 0.77 0.77 0.73 0.69 0.67 0.60 0.50 0.41 0.32 0.24 0.17 0.11 0.07 0.04 0.02 0.02 0.01 0.01 0.01 0.01 0.01 0.01 0.01 0.01 0.01 0.02 0.02 0.02 0.03 0.04 0.05 0.05 0.06 0.08
0.28 0.31 0.36 0.37 0.39 0.40 0.45 0.49 0.51 0.52 0.50 0.46 0.42 0.34 0.28 0.22 0.19 0.16 0.12 0.08 0.06 0.04 0.02 0.02 0.01 0.01 0.01 0.01 0.01 0.01 0.01 0.01 0.01 0.02 0.02 0.04 0.05 0.06 0.06 0.06 0.05 0.06 0.09
0.33 0.33 0.31 0.29 0.29 0.28 0.29 0.30 0.31 0.29 0.29 0.25 0.20 0.18 0.16 0.14 0.10 0.08 0.06 0.03 0.02 0.02 0.01 0.01 0.02 0.02 0.01 0.01 0.01 0.01 0.02 0.02 0.02 0.03 0.04 0.05 0.05 0.07 0.07 0.06 0.06 0.07 0.10
0.45 0.35 0.26 0.21 0.21 0.23 0.25 0.26 0.24 0.22 0.20 0.17 0.13 0.12 0.11 0.09 0.07 0.05 0.03 0.03 0.03 0.03 0.04 0.04 0.03 0.03 0.02 0.02 0.02 0.02 0.02 0.02 0.03 0.03 0.04 0.05 0.05 0.06 0.06 0.06 0.06 0.07 0.09
0.51 0.37 0.28 0.24 0.25 0.27 0.25 0.21 0.19 0.16 0.13 0.12 0.10 0.09 0.08 0.07 0.06 0.05 0.05 0.05 0.05 0.05 0.05 0.04 0.03 0.02 0.01 0.01 0.01 0.01 0.01 0.01 0.02 0.03 0.03 0.04 0.04 0.05 0.06 0.06 0.07 0.11 0.15
0.53 0.44 0.37 0.33 0.31 0.27 0.24 0.21 0.21 0.18 0.14 0.12 0.11 0.11 0.09 0.08 0.08 0.07 0.08 0.08 0.08 0.06 0.05 0.03 0.02 0.01 0.01 0.00 0.00 0.00 0.00 0.01 0.01 0.02 0.02 0.03 0.04 0.05 0.06 0.07 0.10 0.16 0.20
0.50 0.46 0.44 0.42 0.37 0.31 0.27 0.24 0.21 0.20 0.16 0.13 0.12 0.12 0.12 0.11 0.10 0.08 0.07 0.06 0.05 0.03 0.02 0.01 0.01 0.01 0.00 0.00 0.00 0.00 0.00 0.01 0.02 0.03 0.03 0.03 0.03 0.03 0.03 0.06 0.11 0.17 0.21
0.58 0.58 0.61 0.59 0.52 0.43 0.37 0.33 0.30 0.25 0.22 0.21 0.21 0.19 0.16 0.12 0.09 0.06 0.04 0.03 0.02 0.02 0.02 0.01 0.01 0.02 0.01 0.00 0.00 0.00 0.00 0.02 0.03 0.05 0.06 0.04 0.02 0.04 0.07 0.07 0.07 0.08 0.10
0.75 0.78 0.74 0.66 0.59 0.54 0.48 0.44 0.39 0.35 0.32 0.29 0.24 0.18 0.12 0.08 0.06 0.05 0.04 0.03 0.02 0.02 0.02 0.01 0.02 0.03 0.02 0.00 0.00 0.00 0.01 0.03 0.04 0.05 0.06 0.06 0.06 0.06 0.07 0.06 0.05 0.05 0.05
0.74 0.74 0.70 0.64 0.58 0.53 0.48 0.42 0.37 0.32 0.26 0.20 0.14 0.10 0.07 0.06 0.05 0.05 0.04 0.03 0.02 0.02 0.02 0.02 0.02 0.04 0.05 0.01 0.00 0.00 0.01 0.02 0.02 0.03 0.04 0.05 0.07 0.07 0.08 0.07 0.07 0.06 0.06
0.51 0.58 0.59 0.55 0.51 0.44 0.35 0.30 0.25 0.20 0.15 0.10 0.07 0.05 0.04 0.03 0.03 0.03 0.02 0.02 0.02 0.02 0.02 0.02 0.03 0.05 0.07 0.02 0.00 0.01 0.01 0.02 0.02 0.02 0.04 0.07 0.07 0.07 0.07 0.06 0.09 0.13 0.11
0.35 0.43 0.46 0.42 0.35 0.26 0.19 0.17 0.14 0.12 0.08 0.05 0.04 0.04 0.03 0.03 0.02 0.02 0.02 0.02 0.03 0.03 0.03 0.04 0.05 0.06 0.05 0.02 0.01 0.01 0.01 0.02 0.03 0.04 0.06 0.09 0.08 0.06 0.06 0.08 0.12 0.17 0.18
0.23 0.28 0.26 0.20 0.15 0.12 0.11 0.11 0.09 0.07 0.05 0.05 0.05 0.04 0.03 0.02 0.02 0.03 0.04 0.03 0.04 0.04 0.05 0.06 0.06 0.06 0.05 0.04 0.02 0.01 0.01 0.02 0.04 0.06 0.08 0.11 0.10 0.09 0.11 0.12 0.16 0.19 0.25
0.14 0.14 0.10 0.07 0.07 0.08 0.08 0.09 0.07 0.06 0.06 0.07 0.06 0.03 0.02 0.02 0.02 0.02 0.03 0.03 0.05 0.05 0.04 0.05 0.05 0.05 0.06 0.05 0.01 0.01 0.01 0.02 0.04 0.07 0.11 0.14 0.15 0.17 0.21 0.24 0.22 0.26 0.33
0.06 0.06 0.05 0.06 0.07 0.06 0.06 0.06 0.05 0.06 0.06 0.07 0.06 0.04 0.04 0.04 0.03 0.02 0.02 0.03 0.04 0.04 0.04 0.05 0.05 0.05 0.06 0.04 0.02 0.02 0.02 0.03 0.04 0.06 0.13 0.23 0.28 0.30 0.32 0.34 0.35 0.36 0.37
0.06 0.06 0.06 0.06 0.05 0.04 0.03 0.03 0.03 0.05 0.07 0.07 0.05 0.05 0.05 0.05 0.05 0.05 0.04 0.02 0.03 0.01 0.02 0.03 0.03 0.04 0.05 0.04 0.02 0.03 0.03 0.03 0.05 0.06 0.13 0.24 0.30 0.31 0.30 0.28 0.29 0.31 0.33
0.06 0.06 0.05 0.03 0.02 0.01 0.01 0.01 0.01 0.02 0.05 0.05 0.04 0.03 0.04 0.04 0.06 0.09 0.09 0.03 0.01 0.01 0.01 0.01 0.02 0.03 0.06 0.05 0.02 0.03 0.05 0.05 0.08 0.11 0.19 0.28 0.33 0.34 0.31 0.28 0.25 0.24 0.26